Volver al catálogo

STARLINK-3521

ActivoComunicacionesVLEO
NORAD 51742·PAYLOAD·🇺🇸 United States

Lanzado Feb 21, 2022 desde Cape Canaveral Space Force Station

Loading…

Próximos Pases (próximas 24 horas)

TLE

ActualizadoSource: CelesTrak SupGP

Época: Sep 15, 2026, 02:43 UTC

1 51742C 22016AE  26258.11368056  .00013743  00000+0  40610-3 0  2582
2 51742  53.1570 174.6903 0001269  84.1155 195.4765 15.34378535    16

Sigue STARLINK-3521 en tiempo real con AllMySat

Download on the App Store